Погода в Николаевке

Украина / Луганская область     48°35′26″N   39°31′12″E
темп.,
°C
ветер,
м/с
пор.,
м/с
влажн.,
%
обл.,
%
осадки,
мм/ч
давл.,
гПа
погр.,
м
2 марта, вт
вт223:00−1ю11841 0.0 102821
02:00−1юз22861 0.0 102858
05:00−1зюз37860 0.0 1026193
08:00+1зюз6107846 0.0 1025798
11:00+4з81159100 0.0 10231106
14:00+4з81264100 0.0 10201008
17:00+2зюз61374100 0.0 1017799
20:00+3зюз81579100 0.0 1016830
3 марта, ср
ср323:000з81397100 0.6 1013720
02:00+1зсз71297100 1.6 1013645
05:00+1ссз71197100 1.0 1014685
08:00+1ссз7977100 1.1 10171065
11:00+1сз81073100 0.1 10191092
14:00+2сз81263100 0.1 10201668
17:00+1сз5106994 0.1 1021545
20:00−1зсз4107847 0.1 1023378
4 марта, чт
чт423:00−1з36790 0.0 1023197
02:00−1зюз49790 0.0 1023274
05:00−1зюз511800 0.0 1021349
08:00+2зюз711660 0.0 1021649
11:00+6зюз811500 0.0 10191070
14:00+7зюз913490 0.0 10171201
17:00+4юз614630 0.0 1014534
20:00+3юз918740 0.0 1014575
5 марта, пт
пт523:00+3юз918763 0.0 1013589
02:00+3юз9178330 0.0 1012570
05:00+2зюз7148687 0.0 1012543
08:00+4зюз8138393 0.0 1013577
11:00+7юз7117395 0.0 1013627
14:00+8юз7106993 0.0 1013862
17:00+7юз6117692 0.1 1012749
20:00+5ююз7138096 0.2 1012503
6 марта, сб
сб623:00+4юз91584100 0.0 1011467
02:00+4юз81488100 0.0 1010444
05:00+4з51091100 0.1 1010447
08:00+2ссз5897100 0.6 1012361
11:00+1с5683100 0.2 1013615
14:00+1с4693100 0.6 1014408
17:000с5664100 0.3 10151058
20:00−1ссв4672100 0.3 1017653